Location: Atbuku
(36.4936°N, 30.4362°E)
Time: 10:03:32
(UTC+00:00)

Cosmos 1607 - Pass Details

Date: 18 March 2026
Orbit: 919 x 983 km, 65.0° (Epoch: 20 April)

Event Time Altitude Azimuth Distance (km) Brightness Sun altitude
Rises 17:09:46 0° 323° (NW) 3,652 7.8 -13.2°
Reaches altitude 10° 17:12:26 10° 316° (NW) 2,711 7.2 -13.7°
Maximum altitude 17:18:22 43° 248° (WSW) 1,346 5.2 -14.9°
Drops below altitude 10° 17:24:20 10° 179° (S) 2,722 6.2 -16.0°
Sets 17:27:01 0° 172° (S) 3,669 6.8 -16.6°
